User: anonymous   Login
Location: Newark
(51.3318°N, 0.0053°E)
Time: 09:27:31
(UTC+00:00)
Language:

FENGYUN 1C DEB - Orbit

View from above orbital plane
View from above orbital plane
View from above satellite
View from above satellite

Ground track
Ground track

The orbit data is extracted from the following two-line orbital elements,

1 31722U 99025CDV 22330.20239971  .00012868  00000-0  30342-2 0  9992
2 31722 101.9670  61.6424 0017351 272.5085 118.1782 14.54376994809490
Epoch (UTC): 26 November 2022 04:51:27
Eccentricity: 0.0017351
inclination: 101.9670°
perigee height: 699 km
apogee height: 723 km
right ascension of ascending node: 61.6424°
argument of perigee: 272.5085°
revolutions per day: 14.54376994
mean anomaly at epoch: 118.1782°
orbit number at epoch: 80949

The dashed part of the orbit path shows where the satellite is in the earth's shadow,  

DLR